ブルックス第2彗星

16P/Brooks 2 (2021)

English version
Home page
Updated on June 14, 2021

---------------------------------------------------------------------

・ プロフィール

・ 軌道要素

Epoch 2021 Apr. 16.0 TT = JDT 2459320.5
T 2021 Apr. 18.15892 TT                                 MPCW
q   1.8780767            (2000.0)            P               Q
n   0.14102178     Peri.  245.17065     +0.91243097     -0.40776863
a   3.6554871      Node   138.87015     +0.39187244     +0.84627121
e   0.4862308      Incl.    3.01188     +0.11792251     +0.34285534
P   6.99
From 368 observations 2001 July 12-2014 Dec. 31, mean residual 0".8.
     Nongravitational parameters A1 = +1.05, A2 = -0.2274.

・ 光度変化

        m1 = 11.3 + 5 logΔ + 15.0 log r

---------------------------------------------------------------------

軌道要素はM.P.E.C. 2015-A10に掲載されたものです。
光度グラフはComet for Windowsで作成したものです。

---------------------------------------------------------------------

Copyright(C) Seiichi Yoshida (comet@aerith.net). All rights reserved.